Location: Alafon
(8.4500°N, 4.2333°E)
Time: 09:58:52
(UTC+00:00)

Courier 1B Rocket - All Passes

Search period start: 31 July 2021 00:00
Search period end: 10 August 2021 00:00
Orbit: 920 x 1202 km, 28.2° (Epoch: 30 July)

Date Brightness Start Highest point End Pass type
(mag) Time Alt. Az. Time Alt. Az. Time Alt. Az.
31 Jul - 00:20:16 10° W 00:26:38 35° NNW 00:32:36 10° NE night (unlit)
31 Jul - 02:17:31 10° NW 02:21:05 15° NNW 02:24:34 10° NNE visible
31 Jul - 04:14:05 10° NNW 04:16:15 12° N 04:18:23 10° NNE visible
31 Jul - 06:06:21 10° NNW 06:11:03 22° NNE 06:15:48 10° ENE daylight
31 Jul - 07:58:40 10° NW 08:04:53 66° NNE 08:11:26 10° ESE daylight
31 Jul - 09:52:35 10° W 09:58:21 34° SSW 10:04:29 10° SSE daylight
31 Jul - 19:33:19 10° S 19:37:34 15° SSE 19:41:44 10° ESE visible
31 Jul - 21:24:17 10° SW 21:31:38 52° SSE 21:38:31 10° ENE visible
31 Jul - 23:18:17 10° W 23:25:22 51° NNW 23:31:56 10° NE night (unlit)
01 Aug - 01:14:50 10° WNW 01:19:34 19° NNW 01:24:06 10° NNE visible
01 Aug - 03:12:29 10° NNW 03:14:36 12° N 03:16:42 10° NNE visible
01 Aug - 05:05:47 10° NNW 05:09:40 17° NNE 05:13:32 10° NE visible
01 Aug - 06:57:55 10° NW 07:03:49 44° NNE 07:09:53 10° E daylight
01 Aug - 08:51:08 10° WNW 08:57:16 52° SSW 09:03:44 10° SE daylight
01 Aug - 10:47:44 10° WSW 10:51:01 14° SSW 10:54:24 10° S daylight
01 Aug - 20:23:25 10° SSW 20:30:20 35° SSE 20:36:55 10° E visible
01 Aug - 22:16:34 10° WSW 22:24:07 74° NNW 22:31:07 10° ENE night (unlit)
02 Aug - 00:12:20 10° WNW 00:18:07 26° NNW 00:23:35 10° NE night (unlit)
02 Aug - 02:10:03 10° NNW 02:12:57 13° N 02:15:45 10° NNE visible
02 Aug - 04:05:04 10° NNW 04:08:09 14° N 04:11:12 10° NE visible
02 Aug - 05:57:14 10° NW 06:02:39 30° NNE 06:08:06 10° E daylight
02 Aug - 07:50:00 10° WNW 07:56:14 80° SSW 08:02:44 10° ESE daylight
02 Aug - 09:45:01 10° WSW 09:49:44 21° SSW 09:54:40 10° SSE daylight
02 Aug - 19:22:54 10° SSW 19:28:57 24° SSE 19:34:49 10° E visible
02 Aug - 21:15:08 10° SW 21:22:50 78° SSE 21:30:05 10° ENE visible
02 Aug - 23:10:02 10° W 23:16:44 36° NNW 23:23:00 10° NE night (unlit)
03 Aug - 01:07:20 10° NW 01:11:18 16° NNW 01:15:08 10° NNE visible
03 Aug - 03:03:59 10° NNW 03:06:32 12° N 03:09:03 10° NNE visible
03 Aug - 04:56:34 10° NNW 05:01:23 22° NNE 05:06:08 10° ENE visible
03 Aug - 06:49:02 10° NW 06:55:13 68° NNE 07:01:32 10° ESE daylight
03 Aug - 08:43:05 10° W 08:48:36 32° SSW 08:54:22 10° SSE daylight
03 Aug - 18:22:55 10° S 18:27:29 16° SSE 18:31:59 10° ESE visible
03 Aug - 20:13:58 10° SW 20:21:32 54° SSE 20:28:45 10° ENE visible
03 Aug - 22:08:01 10° W 22:15:22 51° NNW 22:22:17 10° NE visible
04 Aug - 00:04:38 10° WNW 00:09:43 20° NNW 00:14:35 10° NNE night (unlit)
04 Aug - 02:02:11 10° NNW 02:04:51 12° N 02:07:28 10° NNE visible
04 Aug - 03:55:52 10° NNW 03:59:59 17° NNE 04:04:00 10° NE visible
04 Aug - 05:48:11 10° NW 05:54:09 45° NNE 06:00:06 10° E daylight
04 Aug - 07:41:34 10° WNW 07:47:34 50° SSW 07:53:44 10° SE daylight
04 Aug - 09:38:35 10° SW 09:41:13 13° SSW 09:43:54 10° S daylight
04 Aug - 17:25:01 10° SSE 17:25:54 10° SSE 17:26:47 10° SSE daylight
04 Aug - 19:13:07 10° SW 19:20:12 37° SSE 19:27:05 10° E visible
04 Aug - 21:06:17 10° WSW 21:14:02 73° NNW 21:21:23 10° NE visible
04 Aug - 23:02:04 10° WNW 23:08:11 27° NNW 23:13:59 10° NE night (unlit)
05 Aug - 00:59:45 10° NW 01:03:08 14° N 01:06:25 10° NNE visible
05 Aug - 02:54:58 10° NNW 02:58:26 15° N 03:01:49 10° NE visible
05 Aug - 04:47:25 10° NW 04:53:00 31° NNE 04:58:27 10° E visible
05 Aug - 06:40:20 10° WNW 06:46:35 78° SSW 06:52:53 10° SE daylight
05 Aug - 08:35:35 10° WSW 08:40:00 20° SSW 08:44:32 10° SSE daylight
05 Aug - 18:12:38 10° SSW 18:18:48 25° SSE 18:24:56 10° E visible
05 Aug - 20:04:51 10° WSW 20:12:43 80° SSE 20:20:15 10° ENE visible
05 Aug - 21:59:46 10° W 22:06:43 37° NNW 22:13:18 10° NE visible
05 Aug - 23:57:02 10° NW 00:01:26 17° NNW 00:05:40 10° NNE night (unlit)
06 Aug - 01:53:39 10° NNW 01:56:46 13° N 01:59:49 10° NNE visible
06 Aug - 03:46:37 10° NNW 03:51:42 23° NNE 03:56:36 10° ENE visible
06 Aug - 05:39:16 10° NW 05:45:35 70° NNE 05:51:47 10° ESE daylight
06 Aug - 07:33:32 10° W 07:38:55 31° SSW 07:44:24 10° SSE daylight
06 Aug - 17:12:42 10° S 17:17:21 17° SSE 17:22:01 10° ESE daylight
06 Aug - 19:03:43 10° SW 19:11:22 55° SSE 19:18:52 10° ENE visible
06 Aug - 20:57:45 10° W 21:05:17 51° NNW 21:12:29 10° NE visible
06 Aug - 22:54:20 10° WNW 22:59:46 21° NNW 23:04:59 10° NNE night (unlit)
07 Aug - 00:51:46 10° NNW 00:55:03 13° N 00:58:12 10° NNE night (unlit)
07 Aug - 02:45:45 10° NNW 02:50:15 19° NNE 02:54:35 10° ENE visible
07 Aug - 04:38:20 10° NW 04:44:30 47° NNE 04:50:28 10° E visible
07 Aug - 06:31:54 10° WNW 06:37:54 48° SSW 06:43:55 10° SE daylight
07 Aug - 08:29:27 10° SW 08:31:28 12° SSW 08:33:31 10° S daylight
07 Aug - 16:14:50 10° SSE 16:15:49 10° SSE 16:16:47 10° SE daylight
07 Aug - 18:02:55 10° SW 18:10:01 38° SSE 18:17:06 10° E daylight
07 Aug - 19:56:03 10° WSW 20:03:53 72° NNW 20:11:30 10° NE visible
07 Aug - 21:51:48 10° WNW 21:58:10 28° NNW 22:04:16 10° NE visible
07 Aug - 23:49:21 10° NW 23:53:15 15° N 23:57:02 10° NNE night (unlit)
08 Aug - 01:44:40 10° NNW 01:48:40 16° N 01:52:30 10° NE visible
08 Aug - 03:37:25 10° NW 03:43:18 33° NNE 03:48:55 10° E visible
08 Aug - 05:30:33 10° WNW 05:36:56 76° SSW 05:43:10 10° SE daylight
08 Aug - 07:26:04 10° WSW 07:30:18 19° SSW 07:34:33 10° SSE daylight
08 Aug - 17:02:31 10° SSW 17:08:38 26° SSE 17:14:51 10° E daylight
08 Aug - 18:54:39 10° WSW 19:02:30 81° SSE 19:10:17 10° ENE visible
08 Aug - 20:49:31 10° W 20:56:36 37° NNW 21:03:28 10° NE visible
08 Aug - 22:46:41 10° NW 22:51:29 18° NNW 22:56:07 10° NNE visible
09 Aug - 00:43:14 10° NNW 00:46:56 14° N 00:50:32 10° NE night (unlit)
09 Aug - 02:36:30 10° NW 02:41:58 25° NNE 02:47:09 10° ENE visible
09 Aug - 04:29:22 10° WNW 04:35:54 72° NNE 04:42:10 10° ESE visible
09 Aug - 06:23:50 10° W 06:29:14 30° SSW 06:34:35 10° SSE daylight
09 Aug - 16:02:41 10° S 16:07:14 17° SSE 16:11:52 10° ESE daylight
09 Aug - 17:53:35 10° SW 18:01:09 57° SSE 18:08:48 10° ENE daylight
09 Aug - 19:47:33 10° W 19:55:07 51° NNW 20:02:33 10° NE visible
09 Aug - 21:44:02 10° WNW 21:49:44 22° NNW 21:55:16 10° NNE visible
09 Aug - 23:41:18 10° NNW 23:45:08 15° N 23:48:51 10° NNE night (unlit)
